Location: Bron Breck
(40.6655°N, 111.8083°W)
Time: 23:53:10
(UTC+00:00)

Envisat - Visible Passes

Search period start: 05 March 2021 00:00
Search period end: 15 March 2021 00:00
Orbit: 764 x 766 km, 98.1° (Epoch: 05 March)

Date Brightness Start Highest point End Pass type
(mag) Time Alt. Az. Time Alt. Az. Time Alt. Az.
05 Mar 6.4 01:41:28 10° WSW 01:44:12 14° W 01:46:57 10° WNW visible
05 Mar 5.5 12:09:41 10° NE 12:13:38 22° E 12:17:35 10° SE visible
06 Mar 3.1 13:10:59 10° NNE 13:16:05 89° E 13:21:11 10° SSW visible
07 Mar 4.5 12:34:26 10° NNE 12:39:12 39° E 12:43:56 10° SSE visible
08 Mar 5.9 11:58:43 10° NE 12:02:07 18° E 12:05:28 10° SE visible
09 Mar 3.4 12:59:34 10° NNE 13:04:40 70° ESE 13:09:43 10° S visible
10 Mar 5.0 12:23:13 10° NE 12:27:43 31° E 12:32:10 10° SSE visible
11 Mar 6.1 11:48:01 10° ENE 11:50:33 14° E 11:53:05 10° ESE visible
12 Mar 3.9 12:48:13 10° NNE 12:53:13 55° E 12:58:11 10° S visible
13 Mar 5.4 12:12:05 10° NE 12:16:12 24° E 12:20:18 10° SSE visible
14 Mar 6.4 11:38:11 10° E 11:38:59 10° E 11:39:47 10° E visible
